Regional Weather Roundup
Issued by NWS

Home | Current Version | Previous Version | Text Only | Print | Product List | Glossary Off
Versions: 1 2 3 4 5 6 7 8 9 10 11 12 13 14 15 16 17 18 19 20 21 22 23 24 25 26 27 28 29 30 31 32 33 34 35 36 37 38 39 40 41 42 43 44 45 46 47 48 49 50

000
ASUS43 KMKX 311111
RWRWI

WISCONSIN REGIONAL WEATHER ROUNDUP
NATIONAL WEATHER SERVICE MILWAUKEE/SULLIVAN WI
600 AM CDT FRI OCT 31 2014

NOTE: "FAIR" INDICATES FEW OR NO CLOUDS BELOW 12,000 FEET WITH NO
SIGNIFICANT WEATHER AND/OR OBSTRUCTIONS TO VISIBILITY.

WIZ001-002-006>008-014>016-023>028-311200-
NORTHWEST WISCONSIN

CITY           SKY/WX    TMP DP  RH WIND       PRES   REMARKS
SUPERIOR ARPT  PTCLDY    29  18  65 NE12      30.51F WCI  19
ASHLAND        LGT SNOW  28  26  92 N12       30.46R FOG     WCI  18
HAYWARD        CLEAR     27  20  75 N12G20    30.43R WCI  17
SIREN          CLOUDY    28  17  63 N10       30.47R WCI  19
CUMBERLAND     MOCLDY    28  18  64 N15G25    30.42R WCI  17
RICE LAKE      CLEAR     28  19  69 N13G18    30.44R WCI  18
CHETEK         CLEAR     29  20  70 NW8G22    30.41R WCI  21
LADYSMITH      MOCLDY    29  22  76 N17G23    30.39R WCI  17
EAU CLAIRE     MOCLDY    30  18  60 N12G22    30.39R WCI  20
MENOMONIE      CLEAR     30  19  63 N15       30.41R WCI  19
NEW RICHMOND   CLOUDY    28  17  64 N13       30.46R WCI  17
OSCEOLA        CLEAR     27  18  68 N8        30.51R WCI  19
$$

WIZ003>005-009-010-017-018-311200-
NORTH CENTRAL WISCONSIN

CITY           SKY/WX    TMP DP  RH WIND       PRES   REMARKS
MANITOWISH WTR LGT SNOW  26  24  91 N12G17    30.32R WCI  16
ARBOR VITAE    LGT SNOW  29  25  85 N17G28    30.30R WCI  17
WOODRUFF       LGT SNOW  29  25  85 N17G28    30.30R WCI  17
RHINELANDER    MOCLDY    27  21  78 N12G18    30.28R WCI  17
EAGLE RIVER    LGT SNOW  27  22  80 N13G24    30.28R WCI  16
LAND O LAKES   CLOUDY    28  24  87 N13G25    30.29R WCI  17
PHILLIPS       PTCLDY    27  22  82 N10G16    30.33R WCI  17
TOMAHAWK       MOCLDY    28  22  80 N10G20    30.30R WCI  18
MEDFORD        CLOUDY    29  22  74 N20G32    30.29R WCI  16
MERRILL        PTCLDY    29  23  76 N16G25    30.27R WCI  17
$$

WIZ029-030-035-036-043>047-311200-
CENTRAL WISCONSIN

CITY           SKY/WX    TMP DP  RH WIND       PRES   REMARKS
WAUSAU         CLEAR     30  21  69 N20G33    30.25R WCI  17
MOSINEE        MOCLDY    30  25  80 N15G25    30.26R WCI  19
MARSHFIELD     CLOUDY    32  22  66 N18G28    30.28R WCI  20
STEVENS POINT  PTCLDY    29  22  75 N14G24    30.25R WCI  18
WAUPACA        MOCLDY    34  28  77 NW15G21   30.21R WCI  24
WAUTOMA        PTCLDY    34  24  67 N12G25    30.22R WCI  25
WISC RAPIDS    MOCLDY    32  23  69 N21G28    30.27R WCI  20
CAMP DOUGLAS   MOCLDY    33  24  70 N21       30.28R WCI  20
$$

WIZ011>013-019>022-031-037>040-048>050-311200-
NORTHEAST WISCONSIN

CITY           SKY/WX    TMP DP  RH WIND       PRES   REMARKS
ANTIGO         CLOUDY    28  24  82 N25G32    30.22R WCI  14
SHAWANO        MOCLDY    36  24  60 N21G32    30.19R WCI  25
OCONTO         CLOUDY    35  25  67 N22G29    30.16R WCI  23
STURGEON BAY   CLOUDY    34  28  80 N35G44    30.10R WCI  19
GREEN BAY      CLOUDY    36  27  69 N22G32    30.15R WCI  25
MANITOWOC      LGT RAIN  35  33  92 N23G36    30.09R WCI  23
APPLETON       CLOUDY    36  23  60 N24G35    30.15R WCI  24
CLINTONVILLE   CLOUDY    34  25  69 N21G31    30.19R WCI  22
OSHKOSH        CLOUDY    36  27  69 N21G30    30.15R WCI  25
$$

WIZ032>034-041-042-053>061-311200-
SOUTHWEST WISCONSIN

CITY           SKY/WX    TMP DP  RH WIND       PRES   REMARKS
LA CROSSE      PTCLDY    32  20  61 N14       30.36R WCI  22
SPARTA         CLOUDY    32  21  64 NW18G25   30.33R WCI  20
VIROQUA        CLOUDY    31  21  68 N22G29    30.29R WCI  18
BOSCOBEL       CLEAR     34  21  59 NW13      30.30R WCI  25
PRAIRIE DU CHI CLEAR     33  19  58 NW13G24   30.32R WCI  23
PLATTEVILLE    CLOUDY    32  22  64 N18G24    30.25R WCI  21
$$

WIZ056-057-062-063-064-067-068-311200-
SOUTH CENTRAL WISCONSIN

CITY           SKY/WX    TMP DP  RH WIND       PRES   REMARKS
REEDSBURG      CLOUDY    32  24  72 N17G30    30.24R WCI  21
BARABOO/DELLS  CLOUDY    33  24  71 N18G30    30.23R WCI  21
LONE ROCK      CLOUDY    38  22  52 N16G26    30.26R WCI  29
MINERAL POINT  MOCLDY    34  23  64 NW21G26   30.22R WCI  22
MADISON        MOCLDY    33  28  81 N18G30    30.18R WCI  22
MIDDLETON      CLOUDY    34  28  76 N23G30    30.19R WCI  22
WATERTOWN      MIX PCPN  32  32  99 NW16G22   30.13R WCI  22
MONROE         FLURRIES  32  30  93 NW14G24   30.17R WCI  22
JANESVILLE     LGT SNOW  36  28  75 NW20G31   30.13R WCI  25
$$

WIZ051-052-058>065-066-070>072-311200-
SOUTHEAST WISCONSIN

CITY           SKY/WX    TMP DP  RH WIND       PRES   REMARKS
MILWAUKEE      LGT SNOW  33  30  88 NW13      30.08R WCI  24
WAUKESHA       LGT SNOW  32  30  93 NW17G24   30.10R WCI  21
MILWAUKEE/TIMM FLURRIES  32  30  93 NW12G17   30.10R WCI  23
RACINE         CLOUDY    37  29  72 NW17G24   30.08R WCI  27
BURLINGTON     FLURRIES  32  29  89 NW17G28   30.10R WCI  21
KENOSHA        FLURRIES  35  31  85 NW14G29   30.08R WCI  26
FOND DU LAC    CLOUDY    36  26  67 N21G29    30.14R WCI  25
SHEBOYGAN      CLOUDY    35  30  82 N18G29    30.08R WCI  24
WEST BEND      CLOUDY    34  30  86 N14       30.10R WCI  24
JUNEAU         MOCLDY    33  29  87 NW20G29   30.14R WCI  21
$$

LSZ147-162-311200-
LAKE SUPERIOR

STATION/POSITION TIME  TEMP    WIND        PRES    WAVE
                       AIR SEA DIR/SP/G            HT/PER
                 (UTC) (F)     (DEG/KT/KT) (MB)    (FT/S)
W MID LAKE BUOY  1050   33 44  360/ 23/ 27 1030.4R   8/ 7
DEVILS ISLAND    1100   32      20/ 26/ 33 1032.6R
PORT WING        1040   33      10/ 20/ 25 1032.5R
SAXON HARBOR     1036   36     360/ 24/ 26 1030.1R
$$

LMZ867-665-643>646-311200-
LAKE MICHIGAN

STATION/POSITION TIME  TEMP    WIND        PRES    WAVE
                       AIR SEA DIR/SP/G            HT/PER
                 (UTC) (F)     (DEG/KT/KT) (MB)    (FT/S)
CHAMBERS ISLAND  1000   37     330/ 28/ 36 1019.0R
N MID LAKE BUOY  1050   39 51  360/ 35/ 45 1016.8R  10/ 7
NORTHPORT PIER   1000   38     350/ 33/ 42 1018.6R
KEWAUNEE LAKESHO 1000   35     340/ 17/ 24 1016.9R
SHEBOYGAN LAKESH 1100   37 49  330/ 25/ 30 1019.4R
PORT WASHINGTON  1000   37     310/ 10/ 24 1018.6
ATWATER BUOY     1100   38     320/ 21/ 27 1019.4R
MILWAUKEE LAKESH 1000   38     310/ 13/ 20   N/A
S MID LAKE BUOY  1050   43 53  320/ 29/ 35 1015.5R   8/ 6
KENOSHA   LAKESH 1100   36     310/ 19/ 25 1017.9R
$$

TC  - TEMPERATURE IN CELSIUS
VSB - VISIBILITY IN STATUTE MILES
WCI - WIND CHILL INDEX
HX  - HEAT INDEX




USA.gov is the U.S. government's official web portal to all federal, state and local government web resources and services.